This is the latest recevied weather packets stored in our database for station/object KB0BDN-13. If no packets are shown the sender has not sent any weather packets the latest 10 day(s).
| Time | Temp. | Humidity | Pressure | Rain* | Wind** | Luminosity | Snow |
|---|---|---|---|---|---|---|---|
| 1788470215 | 23.89° C | 64% | 1006.3 hPa | 0 mm | - | - | - |
| 1788470051 | 23.89° C | 63% | 1006.3 hPa | 0 mm | - | - | - |
| 1788469294 | 23.89° C | 62% | 1006.3 hPa | 0 mm | - | - | - |
| 1788469151 | 23.89° C | 63% | 1006.4 hPa | 0 mm | - | - | - |
| 1788468394 | 24.44° C | 60% | 1006.4 hPa | 0 mm | - | - | - |
| 1788468251 | 24.44° C | 61% | 1006.4 hPa | 0 mm | - | - | - |
| 1788467494 | 24.44° C | 60% | 1006.4 hPa | 0 mm | - | - | - |
| 1788467352 | 24.44° C | 60% | 1006.5 hPa | 0 mm | - | - | - |
| 1788466594 | 24.44° C | 61% | 1006.5 hPa | 0 mm | - | - | - |
| 1788466452 | 24.44° C | 60% | 1006.5 hPa | 0 mm | - | - | - |
| 1788465694 | 25° C | 58% | 1006.5 hPa | 0 mm | - | - | - |
| 1788465552 | 25° C | 59% | 1006.5 hPa | 0 mm | - | - | - |
| 1788464794 | 25.56° C | 56% | 1006.5 hPa | 0 mm | - | - | - |
| 1788463894 | 25.56° C | 58% | 1006.5 hPa | 0 mm | - | - | - |
| 1788463752 | 25.56° C | 58% | 1006.5 hPa | 0 mm | - | - | - |
| 1788462994 | 24.44° C | 61% | 1006.5 hPa | 0 mm | - | - | - |
| 1788462852 | 24.44° C | 62% | 1006.7 hPa | 0 mm | - | - | - |
| 1788462094 | 24.44° C | 60% | 1006.7 hPa | 0 mm | - | - | - |
| 1788461952 | 24.44° C | 60% | 1006.8 hPa | 0 mm | - | - | - |
| 1788461194 | 24.44° C | 60% | 1006.8 hPa | 0 mm | - | - | - |
| 1788461052 | 24.44° C | 61% | 1006.7 hPa | 0 mm | - | - | - |
| 1788460294 | 23.89° C | 62% | 1006.7 hPa | 0 mm | - | - | - |
| 1788460152 | 23.89° C | 61% | 1007.1 hPa | 0 mm | - | - | - |
| 1788459394 | 23.89° C | 61% | 1007.1 hPa | 0 mm | - | - | - |
| 1788459252 | 23.89° C | 61% | 1007.1 hPa | 0 mm | - | - | - |
* Rain latest hour (hover to see other rain measurements)
** Current wind speed in m/s (hover to see current wind gust speed)